Regional Weather Roundup
Issued by NWS

Home | Current Version | Previous Version | Text Only | Print | Product List | Glossary Off
Versions: 1 2 3 4 5 6 7 8 9 10 11 12 13 14 15 16 17 18 19 20 21 22 23 24 25 26 27 28 29 30 31 32 33 34 35 36 37 38 39 40 41 42 43 44 45 46 47 48 49 50

000
ASUS43 KMKX 270021
RWRWI

WISCONSIN REGIONAL WEATHER ROUNDUP
NATIONAL WEATHER SERVICE MILWAUKEE/SULLIVAN WI
700 PM CDT THU MAY 26 2016

NOTE: "FAIR" INDICATES FEW OR NO CLOUDS BELOW 12,000 FEET WITH NO
SIGNIFICANT WEATHER AND/OR OBSTRUCTIONS TO VISIBILITY.

WIZ001-002-006>008-014>016-023>028-270100-
NORTHWEST WISCONSIN

CITY           SKY/WX    TMP DP  RH WIND       PRES   REMARKS
SUPERIOR ARPT  CLOUDY    47  46  99 NE5       29.79R FOG
6HR MIN TEMP:  46; 6HR MAX TEMP:  57;

ASHLAND        SUNNY     63  59  87 NE10      29.78R
6HR MIN TEMP:  58; 6HR MAX TEMP:  69;

HAYWARD        PTSUNNY   77  54  44 S8        29.77R
6HR MIN TEMP:  73; 6HR MAX TEMP:  79;

SIREN          SUNNY     77  48  35 SW12      29.79R
6HR MIN TEMP:  76; 6HR MAX TEMP:  81;

CUMBERLAND     SUNNY     73  50  43 SW8       29.82R
RICE LAKE      SUNNY     77  48  35 SW7       29.83R
6HR MIN TEMP:  74; 6HR MAX TEMP:  80;

CHETEK         SUNNY     76  50  39 W3        29.81R
6HR MIN TEMP:  74; 6HR MAX TEMP:  80;

LADYSMITH      MOSUNNY   77  57  49 SW6       29.83R
6HR MIN TEMP:  72; 6HR MAX TEMP:  78;

EAU CLAIRE     CLOUDY    77  52  41 SW10      29.81R
6HR MIN TEMP:  75; 6HR MAX TEMP:  81;

MENOMONIE      CLOUDY    78  51  39 S10       29.83R
6HR MIN TEMP:  76; 6HR MAX TEMP:  82;

NEW RICHMOND   CLOUDY    75  50  40 W8        29.84R
6HR MIN TEMP:  75; 6HR MAX TEMP:  80;

OSCEOLA        CLOUDY    76  53  45 SW8       29.85R
6HR MIN TEMP:  75; 6HR MAX TEMP:  80;

$$

WIZ003>005-009-010-017-018-270100-
NORTH CENTRAL WISCONSIN

CITY           SKY/WX    TMP DP  RH WIND       PRES   REMARKS
MANITOWISH WTR NOT AVBL
ARBOR VITAE    PTSUNNY   72  62  70 CALM      29.81R
6HR MIN TEMP:  65; 6HR MAX TEMP:  74;

WOODRUFF       PTSUNNY   72  62  70 CALM      29.81R
6HR MIN TEMP:  65; 6HR MAX TEMP:  74;

RHINELANDER    PTSUNNY   73  57  57 SW6       29.82R
6HR MIN TEMP:  64; 6HR MAX TEMP:  76;

EAGLE RIVER      N/A     72  57  59 S5        29.81R
LAND O LAKES   CLOUDY    69  62  80 CALM      29.80F
6HR MIN TEMP:  61; 6HR MAX TEMP:  74; 6HR PCP:  0.03;

PHILLIPS       MOSUNNY   74  58  55 SW10      29.80R
6HR MIN TEMP:  71; 6HR MAX TEMP:  76;

TOMAHAWK       SUNNY     73  55  53 SW3       29.83R
6HR MIN TEMP:  67; 6HR MAX TEMP:  75;

MEDFORD        MOSUNNY   74  59  59 SW8       29.83R
6HR MIN TEMP:  68; 6HR MAX TEMP:  74;

MERRILL        SUNNY     75  58  55 SW8       29.83R
$$

WIZ029-030-035-036-043>047-270100-
CENTRAL WISCONSIN

CITY           SKY/WX    TMP DP  RH WIND       PRES   REMARKS
WAUSAU         MOSUNNY   77  57  50 SW9       29.82R
6HR MIN TEMP:  72; 6HR MAX TEMP:  80;

MOSINEE        MOSUNNY   75  57  53 SW5       29.85R
MARSHFIELD     SUNNY     75  59  57 SW6       29.83R
6HR MIN TEMP:  72; 6HR MAX TEMP:  79;

STEVENS POINT  SUNNY     76  57  51 W6        29.85R
6HR MIN TEMP:  71; 6HR MAX TEMP:  78;

WAUPACA        MOSUNNY   80  57  45 SW6       29.82R HX  80
6HR MIN TEMP:  74; 6HR MAX TEMP:  83; 6HR PCP:  0.02;

WAUTOMA        MOSUNNY   79  59  50 W7        29.84R HX  80
6HR MIN TEMP:  76; 6HR MAX TEMP:  82;

WISC RAPIDS    SUNNY     78  54  43 W8        29.84R
6HR MIN TEMP:  75; 6HR MAX TEMP:  82;

CAMP DOUGLAS   PTSUNNY   76  64  66 W7        29.83R
6HR MIN TEMP:  76; 6HR MAX TEMP:  81;

$$

WIZ011>013-019>022-031-037>040-048>050-270100-
NORTHEAST WISCONSIN

CITY           SKY/WX    TMP DP  RH WIND       PRES   REMARKS
ANTIGO         MOSUNNY   72  60  64 W9        29.84R
6HR MIN TEMP:  65; 6HR MAX TEMP:  74;

SHAWANO        SUNNY     79  56  45 W6        29.82R HX  80
6HR MIN TEMP:  74; 6HR MAX TEMP:  81;

OCONTO         MOSUNNY   67  67  99 E8        29.81R
6HR MIN TEMP:  67; 6HR MAX TEMP:  80;

STURGEON BAY   NOT AVBL
GREEN BAY      SUNNY     80  58  46 W7        29.81R HX  80
6HR MIN TEMP:  76; 6HR MAX TEMP:  81;

MANITOWOC      SUNNY     74  57  55 E9        29.82R HAZE
6HR MIN TEMP:  73; 6HR MAX TEMP:  82;

APPLETON       PTSUNNY   79  55  44 W6        29.81R
CLINTONVILLE   SUNNY     79  52  38 NW5       29.81R
OSHKOSH        SUNNY     79  57  46 W5        29.82R HX  80
6HR MIN TEMP:  77; 6HR MAX TEMP:  81;

$$

WIZ032>034-041-042-053>061-270100-
SOUTHWEST WISCONSIN

CITY           SKY/WX    TMP DP  RH WIND       PRES   REMARKS
LA CROSSE      CLOUDY    79  58  48 W5        29.82R HX  80
6HR MIN TEMP:  77; 6HR MAX TEMP:  84;

SPARTA         CLOUDY    78  56  47 W6        29.84R
6HR MIN TEMP:  75; 6HR MAX TEMP:  82;

VIROQUA        CLOUDY    76  60  58 W5        29.86R
6HR MIN TEMP:  75; 6HR MAX TEMP:  80;

BOSCOBEL       PTSUNNY   80  61  52 CALM      29.84R HX  81
6HR MIN TEMP:  80; 6HR MAX TEMP:  86;

PRAIRIE DU CHI CLOUDY    78  60  53 CALM      29.84R
6HR MIN TEMP:  78; 6HR MAX TEMP:  83;

PLATTEVILLE    PTSUNNY   80  56  43 W6        29.85S HX  80
6HR MIN TEMP:  80; 6HR MAX TEMP:  84;

$$

WIZ056-057-062-063-064-067-068-270100-
SOUTH CENTRAL WISCONSIN

CITY           SKY/WX    TMP DP  RH WIND       PRES   REMARKS
REEDSBURG      CLOUDY    78  59  51 SW6       29.84R
6HR MIN TEMP:  77; 6HR MAX TEMP:  82;

BARABOO/DELLS  CLOUDY    78  55  44 CALM      29.84R
6HR MIN TEMP:  77; 6HR MAX TEMP:  82;

LONE ROCK      CLOUDY    81  54  39 W7        29.83R HX  81
6HR MIN TEMP:  81; 6HR MAX TEMP:  86;

MINERAL POINT  PTSUNNY   79  54  41 CALM      29.86R
MADISON        PTSUNNY   80  53  39 CALM      29.84R HX  80
6HR MIN TEMP:  78; 6HR MAX TEMP:  84;

MIDDLETON      SUNNY     78  56  46 W5        29.85R
6HR MIN TEMP:  78; 6HR MAX TEMP:  84;

WATERTOWN      SUNNY     81  58  45 SW3       29.83R HX  81
6HR MIN TEMP:  78; 6HR MAX TEMP:  83;

MONROE         MOSUNNY   81  52  36 W7        29.85R HX  80
JANESVILLE     PTSUNNY   82  54  36 W8        29.83R HX  81
$$

WIZ051-052-058>065-066-070>072-270100-
SOUTHEAST WISCONSIN

CITY           SKY/WX    TMP DP  RH WIND       PRES   REMARKS
MILWAUKEE      PTSUNNY   83  55  38 W8        29.83R HX  82
6HR MIN TEMP:  78; 6HR MAX TEMP:  85;

WAUKESHA       SUNNY     79  55  44 W6        29.85R
MILWAUKEE/TIMM SUNNY     82  52  34 W6        29.83R HX  81
RACINE         MOSUNNY   76  60  57 SE5       29.85R
6HR MIN TEMP:  76; 6HR MAX TEMP:  83;

BURLINGTON     SUNNY     80  58  46 W5        29.85R HX  80
6HR MIN TEMP:  77; 6HR MAX TEMP:  82;

KENOSHA        SUNNY     80  63  55 SW7       29.84R HX  81
6HR MIN TEMP:  79; 6HR MAX TEMP:  83;

FOND DU LAC    SUNNY     80  56  43 W6        29.83R HX  80
6HR MIN TEMP:  78; 6HR MAX TEMP:  82;

SHEBOYGAN      SUNNY     80  59  48 W5        29.82R HX  81
6HR MIN TEMP:  80; 6HR MAX TEMP:  83;

WEST BEND      SUNNY     81  52  36 W8        29.84R HX  80
JUNEAU         SUNNY     79  58  47 W3        29.86R HX  80
6HR MIN TEMP:  76; 6HR MAX TEMP:  81;

$$

LSZ147-162-270100-
LAKE SUPERIOR

STATION/POSITION TIME  TEMP    WIND        PRES    WAVE
                       AIR SEA DIR/SP/G            HT/PER
                 (UTC) (F)     (DEG/KT/KT) (MB)    (FT/S)
W MID LAKE BUOY  2250   40 38  320/  4/  6 1010.0F   1/ 4
DEVILS ISLAND    0000   44      90/  6/  7 1008.6F
SAXON HARBOR     0000   49      50/  3/  9 1008.5
$$

LMZ867-665-643>646-270100-
LAKE MICHIGAN

STATION/POSITION TIME  TEMP    WIND        PRES    WAVE
                       AIR SEA DIR/SP/G            HT/PER
                 (UTC) (F)     (DEG/KT/KT) (MB)    (FT/S)
CHAMBERS ISLAND  2300   64      30/ 10/ 11 1009.1
N MID LAKE BUOY  2250   48 45  250/  6/  8 1010.0R   2/ 4
NORTHPORT PIER   2300   60     320/  5/ 16 1009.1F
SISTER BAY       22C1F1C2F2C3F3C4F4C5F5C6F6C7F7C8M1C9M2Ca!



USA.gov is the U.S. government's official web portal to all federal, state and local government web resources and services.